Back to catalog

RADUGA 3

AliveMilitaryGEO
NORAD 10159·PAYLOAD·🇷🇺 Russia

Launched Jul 23, 1977 from Baikonur Cosmodrome

Loading…

TLE

FreshSource: Space-Track

Epoch: Sep 14, 2026, 14:14 UTC

1 10159U 77071A   26257.59321442 -.00000264  00000-0  00000-0 0  9993
2 10159   3.8932 272.1967 0009899 304.9155  81.2450  1.00347776177942

Track RADUGA 3 in real time with AllMySat

Download on the App Store